[[{"header":{"parameterUnit":"m.s-1","parameterCategory":1,"la1":30.2991,"la2":30.254,"lo1":-89.0895,"lo2":-89.0444,"dy":0.0017,"dx":0.0017,"nx":28,"ny":28,"refTime":"2025-12-25T03:00:00:Z","depth":0,"parameterNumber":2,"parameterNumberName":"U-component_of_WINDS"},"data":[0,0,0,0,0,0,0,0,0,0,0,0,0,0,0,0,0,0,0,0,0,0,0,0,0,0,0,0,0,0,0,0,0,0,0,0,0,0,0,0,0,0,0,0,0,0,0,0,0,0,0,0,0,0,0,0,0,0,1.2243,1.2244,0,1.2299,1.23,1.2301,1.229,1.2289,1.2288,1.2287,1.2346,1.2348,1.2351,0,0,0,0,0,0,0,0,0,0,0,0,0,1.2127,1.2129,1.2243,1.2244,1.2244,1.2299,1.23,1.2301,1.229,1.2289,1.2287,1.2286,1.2345,1.2348,1.2351,0,0,0,0,0,0,0,0,0,0,0,0,0,1.218,1.213,1.2243,1.2246,1.2246,1.2299,1.23,1.2301,1.229,1.2289,1.2287,1.2286,1.2344,1.2347,1.2351,1.2405,0,0,1.2363,1.2364,0,0,0,0,0,0,0,0,1.2177,1.2184,1.2244,1.2245,1.2246,1.2286,1.2281,1.2336,1.229,1.2274,1.2287,1.2285,1.2327,1.2332,1.2346,1.2408,1.241,1.2363,1.2365,1.2367,1.2368,0,0,0,0,0,0,0,1.2173,1.2182,1.2265,1.2245,1.2247,1.2244,1.225,1.2291,1.2308,1.2275,1.2274,1.2281,1.2327,1.2342,1.2347,1.2411,1.2363,1.2366,1.2369,1.237,1.252,1.2522,0,0,0,0,0,0,1.2168,1.2179,1.2264,1.2267,1.2207,1.2248,1.2254,1.2275,1.2308,1.2311,1.2282,1.228,1.2337,1.2343,1.2349,1.2414,1.2367,1.237,1.2373,1.2518,1.2521,1.2522,0,0,0,0,0,0,1.2166,1.2176,1.2261,1.2223,1.2233,1.2251,1.2275,1.2277,1.2292,1.2313,1.2316,1.2294,1.2336,1.2344,1.2391,1.2416,1.2372,1.2376,1.2516,1.2519,1.2521,1.2545,0,0,0,0,0,0,1.2163,1.2175,1.2196,1.2223,1.2235,1.2302,1.2276,1.2279,1.2298,1.2296,1.2326,1.2329,1.2335,1.2386,1.2395,1.2421,1.2379,1.2514,1.2518,1.2521,1.2542,1.2548,1.2553,0,0,0,0,0,1.2159,1.22,1.2197,1.2207,1.2261,1.2303,1.231,1.2316,1.23,1.2321,1.2335,1.2328,1.2412,1.2391,1.2401,1.2428,1.2513,1.2517,1.252,1.254,1.2547,1.2553,0,0,0,0,0,0,1.2176,1.2204,1.22,1.2252,1.2275,1.2301,1.2328,1.2324,1.2352,1.2349,1.2356,1.2363,1.241,1.2424,1.24,1.2482,1.246,1.2466,1.2471,1.2478,1.2484,1.2479,1.2382,0,0,0,0,0,1.2186,1.2217,1.224,1.2284,1.2296,1.231,1.2328,1.2331,1.2355,1.2365,1.2382,1.2407,1.2438,1.2459,1.249,1.2544,1.255,1.2568,1.2574,1.2578,1.2583,1.2613,1.2621,1.2535,1.2535,1.2535,0,0,1.2206,1.2226,1.2245,1.2288,1.2306,1.2339,1.2318,1.2354,1.2378,1.2371,1.2416,1.243,1.2457,1.2508,1.2531,1.2521,1.2608,1.2583,1.2587,1.2589,1.2618,1.2626,1.2633,1.2538,1.2537,1.2537,0,0,1.226,1.2278,1.2316,1.2335,1.2363,1.2372,1.2381,1.2408,1.2416,1.2462,1.2457,1.2486,1.2541,1.2561,1.2578,1.264,1.2634,1.265,1.2679,1.2707,1.2714,1.272,1.2742,1.2749,1.2655,1.2655,1.2655,0,1.2282,1.2331,1.2336,1.2372,1.2391,1.2386,1.2425,1.2443,1.2479,1.2492,1.248,1.2549,1.2567,1.2622,1.2637,1.2652,1.2662,1.2646,1.2713,1.2719,1.2724,1.2745,1.2753,1.2656,1.2656,1.2656,1.2656,0,1.2356,1.239,1.2418,1.2453,1.2475,1.2512,1.2523,1.2545,1.2546,1.2557,1.2603,1.2625,1.2659,1.2673,1.2674,1.2729,1.2721,1.2711,1.2689,1.2734,1.2753,1.2761,1.2659,1.2658,1.2658,1.2657,0,0,1.2422,1.246,1.247,1.2485,1.2516,1.2542,1.2579,1.2613,1.2631,1.2657,1.2688,1.2735,1.2725,1.2745,1.2748,1.2774,1.2821,1.276,1.2761,1.277,1.2881,1.2888,1.2897,1.2818,1.2819,1.282,1.2879,0,1.2478,1.2543,1.2549,1.2608,1.2639,1.2635,1.2667,1.2689,1.27,1.2729,1.2741,1.2774,1.2759,1.2771,1.2796,1.281,1.2843,1.2806,1.2846,1.2848,1.2839,1.2907,1.2915,1.2969,1.2886,1.2888,1.2889,0,1.2552,1.258,1.2641,1.2667,1.268,1.2709,1.274,1.2768,1.2793,1.2799,1.2821,1.2821,1.286,1.2837,1.289,1.2864,1.2881,1.2891,1.2893,1.2897,1.287,1.2912,1.2986,1.2994,1.2901,1.29,1.2899,0,1.2593,1.2646,1.2689,1.2703,1.2734,1.2754,1.2769,1.2792,1.2812,1.284,1.2853,1.2884,1.2902,1.2927,1.2935,1.2918,1.2988,1.2966,1.2994,1.2994,1.3008,1.3007,1.3085,1.3021,1.3021,1.302,1.302,0,1.2655,1.2692,1.2708,1.2734,1.2776,1.2783,1.2825,1.2838,1.2859,1.2888,1.2887,1.2914,1.2925,1.2954,1.2962,1.3004,1.3012,1.3018,1.302,1.3018,1.3017,1.3029,1.3025,1.3023,1.3022,1.3022,1.3021,0,1.2707,1.2719,1.2766,1.2792,1.2799,1.2829,1.2852,1.2877,1.2888,1.2925,1.2934,1.2951,1.2985,1.2997,1.3039,1.3044,1.3093,1.3092,1.3084,1.3084,1.3111,1.3108,1.3199,1.3211,1.314,1.314,1.3141,0,1.2745,1.2774,1.2803,1.2823,1.2837,1.2869,1.2889,1.2897,1.2918,1.2949,1.2971,1.3005,1.3033,1.3088,1.3104,1.3136,1.3135,1.3165,1.314,1.3137,1.3135,1.3132,1.3135,1.3169,1.317,1.317,1.3171,0,1.2811,1.2816,1.2845,1.2876,1.29,1.2925,1.2949,1.2965,1.2977,1.3,1.3035,1.3057,1.3099,1.3133,1.3166,1.3181,1.3178,1.3179,1.3187,1.3185,1.3179,1.3182,1.3096,1.3176,1.3176,1.3176,1.3175,1.3175,1.2857,1.2882,1.2907,1.2939,1.2958,1.2981,1.3006,1.302,1.3049,1.3084,1.3087,1.3125,1.315,1.3193,1.321,1.3239,1.3231,1.3243,1.3246,1.3248,1.325,1.3175,1.3246,1.3246,1.3245,1.3245,1.3245,0,1.2922,1.2938,1.2968,1.3001,1.3027,1.3022,1.3049,1.307,1.3103,1.3126,1.3153,1.3194,1.3226,1.3245,1.3278,1.3298,1.3298,1.3306,1.3305,1.3308,1.3256,1.3245,1.3306,1.3306,1.3306,1.3306,1.3306,1.3306,1.2959,1.3001,1.3009,1.306,1.3076,1.3112,1.3128,1.3149,1.3167,1.3212,1.3239,1.3251,1.3273,1.3307,1.3337,1.3342,1.3354,1.3363,1.3367,1.3318,1.3312,1.3306,1.3296,1.3366,1.3366,1.3416,1.3417,1.3417]},{"header":{"parameterUnit":"m.s-1","parameterCategory":1,"la1":30.2991,"la2":30.254,"lo1":-89.0895,"lo2":-89.0444,"dy":0.0017,"dx":0.0017,"nx":28,"ny":28,"refTime":"2025-12-25T03:00:00:Z","depth":0,"parameterNumber":3,"parameterNumberName":"V-component_of_WINDS"},"data":[0,0,0,0,0,0,0,0,0,0,0,0,0,0,0,0,0,0,0,0,0,0,0,0,0,0,0,0,0,0,0,0,0,0,0,0,0,0,0,0,0,0,0,0,0,0,0,0,0,0,0,0,0,0,0,0,0,0,1.4738,1.4738,0,1.4711,1.4711,1.4711,1.4696,1.4696,1.4696,1.4696,1.4666,1.4665,1.4665,0,0,0,0,0,0,0,0,0,0,0,0,0,1.4774,1.4773,1.4738,1.4738,1.4738,1.4711,1.4711,1.4711,1.4696,1.4696,1.4696,1.4696,1.4666,1.4665,1.4665,0,0,0,0,0,0,0,0,0,0,0,0,0,1.4754,1.4773,1.4738,1.4727,1.4726,1.4712,1.4711,1.4711,1.4696,1.4696,1.4696,1.4696,1.4667,1.4666,1.4664,1.4658,0,0,1.4661,1.466,0,0,0,0,0,0,0,0,1.4755,1.4752,1.4729,1.4728,1.4727,1.4707,1.4713,1.4693,1.4696,1.4708,1.4696,1.4696,1.468,1.4677,1.4672,1.4657,1.4655,1.4661,1.466,1.466,1.4659,0,0,0,0,0,0,0,1.4756,1.4753,1.4728,1.4729,1.4727,1.4723,1.472,1.4709,1.4694,1.4707,1.4705,1.4703,1.4679,1.4674,1.4672,1.4655,1.4661,1.466,1.4659,1.4659,1.4631,1.4631,0,0,0,0,0,0,1.476,1.4755,1.4728,1.4727,1.4741,1.4722,1.4719,1.4713,1.4694,1.4691,1.4703,1.4702,1.4676,1.4673,1.467,1.4661,1.466,1.4658,1.4658,1.4631,1.4631,1.4631,0,0,0,0,0,0,1.4761,1.4758,1.4729,1.474,1.4736,1.4721,1.4716,1.4713,1.4708,1.4691,1.4688,1.47,1.4675,1.4672,1.4661,1.466,1.4658,1.4657,1.4631,1.4631,1.4631,1.4642,0,0,0,0,0,0,1.4762,1.4758,1.4756,1.4741,1.4736,1.4722,1.4715,1.4712,1.4706,1.4705,1.4688,1.4685,1.4675,1.4663,1.466,1.4658,1.4656,1.4631,1.4631,1.4631,1.4642,1.4642,1.4643,0,0,0,0,0,1.4763,1.476,1.4756,1.4753,1.4734,1.4722,1.4719,1.4708,1.4706,1.4703,1.4693,1.4686,1.466,1.4662,1.4658,1.4656,1.4631,1.4631,1.4631,1.4641,1.4642,1.4643,0,0,0,0,0,0,1.4776,1.4758,1.4753,1.4746,1.4735,1.4719,1.4716,1.471,1.4699,1.4698,1.4684,1.4681,1.4671,1.4662,1.4664,1.4648,1.4645,1.4644,1.4654,1.4655,1.4655,1.4657,1.4655,0,0,0,0,0,1.4778,1.477,1.4755,1.4749,1.4744,1.4731,1.4725,1.4718,1.4706,1.4702,1.469,1.4678,1.4667,1.4661,1.465,1.464,1.4636,1.4637,1.4637,1.4638,1.4637,1.463,1.463,1.463,1.463,1.463,0,0,1.4781,1.4771,1.4767,1.4752,1.4743,1.4734,1.4728,1.4719,1.4712,1.47,1.4689,1.468,1.4666,1.4655,1.465,1.4648,1.4636,1.4638,1.4639,1.4638,1.463,1.463,1.463,1.463,1.463,1.463,0,0,1.4784,1.4776,1.477,1.4761,1.4748,1.4739,1.4737,1.4722,1.4716,1.4705,1.4695,1.4686,1.4668,1.4658,1.465,1.4648,1.4641,1.4645,1.4648,1.4641,1.4641,1.4641,1.4639,1.4639,1.4644,1.4644,1.4644,0,1.479,1.4778,1.4767,1.4759,1.4752,1.4741,1.4735,1.4726,1.471,1.4705,1.4703,1.4679,1.4669,1.4655,1.4655,1.4649,1.4646,1.4647,1.4642,1.4642,1.4642,1.464,1.4639,1.4645,1.4645,1.4645,1.4644,0,1.4786,1.4777,1.4774,1.4759,1.4752,1.4744,1.4731,1.4725,1.4718,1.4709,1.4696,1.4684,1.4669,1.4666,1.4658,1.465,1.4649,1.4645,1.4641,1.4642,1.464,1.4639,1.4645,1.4645,1.4645,1.4645,0,0,1.4796,1.4775,1.4774,1.4766,1.4751,1.4743,1.4735,1.4722,1.4716,1.4705,1.4696,1.4681,1.4676,1.4668,1.4659,1.4653,1.4651,1.4649,1.4649,1.4649,1.464,1.4643,1.4642,1.4646,1.4646,1.4646,1.4641,0,1.4796,1.4781,1.4771,1.476,1.4751,1.474,1.4732,1.4721,1.4712,1.4702,1.4692,1.4681,1.4676,1.4671,1.4664,1.4653,1.4649,1.4653,1.4637,1.4636,1.4641,1.4642,1.4645,1.4641,1.464,1.464,1.464,0,1.4794,1.4783,1.4772,1.4756,1.4752,1.4746,1.4732,1.4723,1.471,1.4703,1.4693,1.4685,1.4673,1.4671,1.4655,1.4658,1.465,1.4643,1.4643,1.464,1.4638,1.4639,1.464,1.4639,1.4638,1.4639,1.4639,0,1.4801,1.4784,1.4775,1.4769,1.4751,1.4746,1.4738,1.4725,1.4717,1.4705,1.4699,1.4686,1.4678,1.4667,1.4654,1.4654,1.4639,1.4635,1.4632,1.4632,1.4629,1.4629,1.4629,1.4625,1.4625,1.4625,1.4625,0,1.4802,1.4795,1.4778,1.4772,1.4764,1.4751,1.4743,1.4733,1.4721,1.4712,1.4701,1.4693,1.4677,1.4666,1.4655,1.4643,1.4639,1.4633,1.463,1.4634,1.4634,1.4629,1.4628,1.4625,1.4625,1.4625,1.4625,0,1.4809,1.4798,1.4787,1.477,1.4766,1.476,1.4745,1.4738,1.4728,1.4717,1.4714,1.4697,1.4684,1.467,1.4651,1.4644,1.4632,1.4628,1.4637,1.4635,1.4632,1.4633,1.4627,1.4625,1.4624,1.4624,1.4624,0,1.481,1.4805,1.4788,1.4782,1.4774,1.4764,1.4756,1.4743,1.4735,1.4719,1.4714,1.4699,1.4687,1.4666,1.4652,1.4637,1.4633,1.4632,1.463,1.4634,1.4632,1.4632,1.4631,1.4632,1.4632,1.4632,1.4633,0,1.4813,1.4808,1.4798,1.4785,1.4777,1.4766,1.4755,1.475,1.4734,1.4726,1.4712,1.4703,1.4684,1.467,1.4653,1.4643,1.4635,1.4633,1.4631,1.4635,1.464,1.4636,1.4638,1.4633,1.4633,1.4633,1.4633,1.4633,1.4817,1.4811,1.4798,1.4787,1.4777,1.4767,1.4759,1.4749,1.4737,1.4722,1.4714,1.4701,1.4685,1.4662,1.4653,1.464,1.4638,1.4636,1.4635,1.4635,1.4635,1.4642,1.4637,1.4637,1.4637,1.4637,1.4637,0,1.4819,1.481,1.4799,1.4785,1.4775,1.4769,1.4756,1.4748,1.4737,1.4724,1.4712,1.4696,1.4682,1.4666,1.4651,1.4644,1.4639,1.464,1.464,1.4638,1.4639,1.4641,1.4644,1.4644,1.4644,1.4644,1.4644,1.4644,1.4818,1.4808,1.4801,1.4785,1.4776,1.4763,1.4756,1.4746,1.4735,1.4718,1.4706,1.4697,1.4682,1.4665,1.4651,1.4647,1.4641,1.4643,1.4637,1.4638,1.4638,1.4637,1.464,1.4642,1.4642,1.4637,1.4637,1.4637]}]]